Location: Unspecified
(0.0000°N, 0.0000°E)
Time: 11:28:19
(UTC+00:00)

Vanguard 1 Rocket - Pass Details

Date: 22 November 2019
Orbit: 650 x 4226 km, 34.3° (Epoch: 07 December)

Event Time Altitude Azimuth Distance (km) Brightness Sun altitude
Rises 17:59:36 0° 227° (SW) 8,455 13.8 -3.2°
Reaches altitude 10° 18:07:47 10° 215° (SW) 7,401 13.0 -5.1°
Maximum altitude 18:27:03 27° 165° (SSE) 5,197 11.3 -9.6°
Drops below altitude 10° 18:40:29 10° 113° (ESE) 5,239 10.8 -12.7°
Enters shadow 18:43:09 - 105° (ESE) 5,527 10.9 -13.4°
Sets 18:44:45 0° 100° (E) 5,741 - -13.7°
